Tracking 29487 objects as of 11-Sep-2024
HD Live streaming from Space Station
objects crossing your sky now

TITAN 3C TRANSTAGE DEB

Track TITAN 3C TRANSTAGE DEB now!
10-day predictions


NORAD ID: 1833
Int'l Code: 1965-082DY
Perigee: 631.4 km
Apogee: 728.3 km
Inclination: 32.2 °
Period: 98.2 minutes
Semi major axis: 7050 km
RCS: 0.1109 m2 (medium)
Launch date: October 15, 1965
Source: United States (US)
Launch site: AIR FORCE EASTERN TEST RANGE (AFETR)

Note: This is SATELLITE DEBRIS
Your satellite tracking list
Your tracking list is empty




NASA's NSSDC Master Catalog

Two Line Element Set (TLE):
1 01833U 65082DY  24254.87791439  .00008753  00000-0  14960-2 0  9996
2 01833  32.2261 104.8502 0068762  11.4377 348.7818 14.66357721 74995
Source of the keplerian elements: AFSPC